Regional Weather Roundup
Issued by NWS

Home | Current Version | Previous Version | Graphics & Text | Print | Product List | Glossary On
Versions: 1 2 3 4 5 6 7 8 9 10 11 12 13 14 15 16 17 18 19 20 21 22 23 24 25 26 27 28 29 30 31 32 33 34 35 36 37 38 39 40 41 42 43 44 45 46 47 48 49 50
000
ASUS45 KBOU 250307
RWRCO

WEATHER ROUNDUP FOR COLORADO
NATIONAL WEATHER SERVICE DENVER/BOULDER CO
900 PM MDT SUN MAY 24 2015

NOTE: "FAIR" INDICATES FEW OR NO CLOUDS BELOW 12000 FEET WITH NO
SIGNIFICANT WEATHER AND/OR OBSTRUCTIONS TO VISIBILITY.

COZ001>005-013-030-031-250400-
...NORTHWEST COLORADO...

CITY           SKY/WX    TMP DP  RH WIND       PRES   REMARKS
CRAIG          CLOUDY    45  39  79 SW5       29.96R
HAYDEN         CLOUDY    43  36  75 NW5       29.96R
MEEKER         MOCLDY    44  40  85 CALM      29.96S
MOUNT WERNER   NOT AVBL
STEAMBOAT SPGS CLOUDY    40  37  91 E5        29.96R
WALDEN         CLOUDY    36  34  93 SW3       29.96R
$$

COZ006>008-011-250400-
...WEST CENTRAL VALLEYS...

CITY           SKY/WX    TMP DP  RH WIND       PRES   REMARKS
GRAND JUNCTION LGT RAIN  52  47  83 S5        29.90S
MONTROSE       CLOUDY    50  43  77 SW7       29.95R
EAGLE          CLOUDY    46  37  71 SW16G23   29.97R
RIFLE          LGT RAIN  46  43  89 CALM      29.96S
DELTA          CLOUDY    53  45  76 MISG      29.93R
NUCLA          CLOUDY    52  39  62 SE5       29.95S
$$

COZ017>023-064>068-250400-
...SOUTHWEST COLORADO...

CITY           SKY/WX    TMP DP  RH WIND       PRES   REMARKS
DURANGO        PTCLDY    50  34  54 W10       29.96R
CORTEZ         MOCLDY    53  41  63 CALM      29.94S
PAGOSA SPRINGS MOCLDY    42  41  97 CALM      30.00S
TELLURIDE      CLOUDY    41  36  83 CALM      30.07R
WOLF CREEK PAS NOT AVBL
$$

COZ009-010-012-014-032>034-037-058>063-250400-
...CENTRAL COLORADO...

CITY           SKY/WX    TMP DP  RH WIND       PRES   REMARKS
ASPEN          LGT RAIN  40  37  89 N7        29.98R
BUENA VISTA    MOCLDY    47  28  47 W17       29.93R
COPPER MTN     SNOW      32  28  86 W16       30.06R VSB<1/4 WCI  21
BERTHOUD PASS  HVY SNOW  23  16  74 NW17G23   30.07S VSB 1/4 WCI   9
COTTONWOOD PAS MOCLDY    43  27  52 NW8G24    30.00R
GUNNISON       CLOUDY    45  32  61 N7        30.00R
KREMMLING      LGT RAIN  39  34  81 S5        29.97S
LEADVILLE      FLURRIES  34  29  82 N9        30.00R WCI  27
MONARCH PASS   FOG       28  28 100 MISG      30.17R VSB<1/4
SALIDA         MOCLDY    51  31  47 SW13      29.99R
SUNLIGHT       SNOW      32  32 100 CALM      30.09R VSB 1/2
WILKERSON PASS CLOUDY    32  28  86 MISG      30.07R
$$

COZ069>075-250400-
...SAN LUIS VALLEY/SANGRE DE CRISTO MOUNTAINS...

CITY           SKY/WX    TMP DP  RH WIND       PRES   REMARKS
ALAMOSA        MOCLDY    44  37  76 CALM      29.95R
LA VETA PASS   PTCLDY   N/A N/A N/A MISG      30.01S
SAGUACHE       PTCLDY    41  37  87 E7        29.97R
$$

COZ035-036-038>040-250400-
...NORTHERN COLORADO FRONT RANGE...

CITY           SKY/WX    TMP DP  RH WIND       PRES   REMARKS
DENVER INTL AP MOCLDY    54  41  61 NW14      29.85R
DMNS CITY PARK   N/A     52  41  65 NW2       29.86S
AURORA         MOCLDY    52  41  65 N10       29.87R
FRONT RANGE AP NOT AVBL
ERIE MUNI ARPT CLOUDY    51  45  80 N10       29.86R
BOULDER MUN AP LGT RAIN  52  45  76 CALM      29.86S
CENTENNIAL     MOCLDY    51  41  68 NW6       29.86R
BROOMFIELD     NOT AVBL
FORT COLLINS   MOCLDY    50  41  71 N12       29.89R
LONGMONT       CLOUDY    54  43  66 N5        29.89R
$$

COZ041-046-047-076>085-087-088-250400-
...PIKES PEAK/PALMER DIVIDE AND SOUTHERN FOOTHILLS...

CITY           SKY/WX    TMP DP  RH WIND       PRES   REMARKS
COLO. SPRINGS  LGT RAIN  51  42  71 NW8       29.88R
A. F. ACADEMY  MOCLDY    48  40  73 W3        29.89R
ELLICOTT       NOT AVBL
FALCON         MOCLDY    47  38  68 N8        29.90S
FORT CARSON    LGT RAIN  52  41  66 W16G26    29.87R
LIMON          CLOUDY    47  44  90 E6        29.84S
MONUMENT HILL  NOT AVBL
TRINIDAD       PTCLDY    50  43  77 E5        29.85R
$$

COZ042>045-048>051-090-091-250400-
...NORTHEAST COLORADO...

CITY           SKY/WX    TMP DP  RH WIND       PRES   REMARKS
GREELEY ARPT   CLOUDY    54  45  71 N14       29.86R
AKRON          CLOUDY    47  46  97 NW5       29.82R
BURLINGTON     CLOUDY    50  48  93 NE7       29.81R
WRAY           DRIZZLE  N/A N/A N/A S3        29.82R
STERLING       CLOUDY    52  48  87 N6        29.80R
HOLYOKE        NOT AVBL
FORT MORGAN    CLOUDY    50  44  79 N8        29.83R
$$

COZ086-089-092>099-250400-
...SOUTHEAST COLORADO...

CITY           SKY/WX    TMP DP  RH WIND       PRES   REMARKS
PUEBLO         MOCLDY    54  47  77 SW5       29.81R
LA JUNTA       PTCLDY    54  47  77 SW7       29.78R
LAMAR          CLOUDY    53  50  89 NW7       29.73F
SPRINGFIELD      N/A     51  46  83 NW9       29.79R
$$


USA.gov is the U.S. government's official web portal to all federal, state and local government web resources and services.